Time,TemperatureF,DewpointF,PressureIn,WindDirection,WindDirectionDegrees,WindSpeedMPH,WindSpeedGustMPH,Humidity,HourlyPrecipIn,Conditions,Clouds,dailyrainin,SolarRadiationWatts/m^2,SoftwareType,DateUTC
2013-06-22 00:00:00,52.3,50.0,30.10,SE,132,0.0,0.0,92,0.00,,,0.00,0,WeatherCatV1.14B232,2013-06-22 07:00:00,
2013-06-22 00:05:00,52.3,50.0,30.10,SE,132,0.0,0.0,92,0.00,,,0.00,0,WeatherCatV1.14B232,2013-06-22 07:05:00,
2013-06-22 00:10:00,52.2,49.9,30.10,SE,132,0.0,0.0,92,0.00,,,0.00,0,WeatherCatV1.14B232,2013-06-22 07:10:00,
2013-06-22 00:15:00,52.0,49.7,30.09,SE,132,0.0,0.0,92,0.00,,,0.00,0,WeatherCatV1.14B232,2013-06-22 07:15:00,
2013-06-22 00:20:00,51.9,49.6,30.09,SE,132,0.0,0.0,92,0.00,,,0.00,0,WeatherCatV1.14B232,2013-06-22 07:20:00,
2013-06-22 00:25:00,51.7,49.5,30.09,SE,132,0.0,0.0,92,0.00,,,0.00,0,WeatherCatV1.14B232,2013-06-22 07:25:00,
2013-06-22 00:30:00,51.6,49.4,30.09,SE,132,0.0,0.0,92,0.00,,,0.00,0,WeatherCatV1.14B232,2013-06-22 07:30:00,
2013-06-22 00:35:00,51.4,49.2,30.09,SE,132,0.0,0.0,92,0.00,,,0.00,0,WeatherCatV1.14B232,2013-06-22 07:35:00,
2013-06-22 00:40:00,51.4,49.4,30.09,SE,132,0.0,0.0,93,0.00,,,0.00,0,WeatherCatV1.14B232,2013-06-22 07:40:00,
2013-06-22 00:45:00,51.3,49.3,30.09,SE,132,0.0,0.0,93,0.00,,,0.00,0,WeatherCatV1.14B232,2013-06-22 07:45:00,
2013-06-22 00:50:00,51.1,49.1,30.09,SE,132,0.0,0.0,93,0.00,,,0.00,0,WeatherCatV1.14B232,2013-06-22 07:50:00,
2013-06-22 00:55:00,51.0,49.0,30.09,SE,132,0.0,0.0,93,0.00,,,0.00,0,WeatherCatV1.14B232,2013-06-22 07:55:00,
2013-06-22 01:00:00,51.0,49.0,30.09,SE,132,0.0,0.0,93,0.00,,,0.00,0,WeatherCatV1.14B232,2013-06-22 08:00:00,
2013-06-22 01:05:00,50.8,48.8,30.09,SE,132,0.0,0.0,93,0.00,,,0.00,0,WeatherCatV1.14B232,2013-06-22 08:05:00,
2013-06-22 01:10:00,50.7,48.7,30.09,SE,131,0.0,0.0,93,0.00,,,0.00,0,WeatherCatV1.14B232,2013-06-22 08:10:00,
2013-06-22 01:15:00,50.5,48.6,30.09,SE,132,0.0,0.0,93,0.00,,,0.00,0,WeatherCatV1.14B232,2013-06-22 08:15:00,
2013-06-22 01:20:00,50.4,48.5,30.09,SE,132,0.0,0.0,93,0.00,,,0.00,0,WeatherCatV1.14B232,2013-06-22 08:20:00,
2013-06-22 01:25:00,50.2,48.3,30.09,SE,132,0.0,0.0,93,0.00,,,0.00,0,WeatherCatV1.14B232,2013-06-22 08:25:00,
2013-06-22 01:30:00,50.1,48.2,30.09,SE,132,0.0,0.0,93,0.00,,,0.00,0,WeatherCatV1.14B232,2013-06-22 08:30:00,
2013-06-22 01:35:00,49.9,48.0,30.09,SE,132,0.0,0.0,93,0.00,,,0.00,0,WeatherCatV1.14B232,2013-06-22 08:35:00,
2013-06-22 01:40:00,49.8,47.9,30.09,SE,132,0.0,0.0,93,0.00,,,0.00,0,WeatherCatV1.14B232,2013-06-22 08:40:00,
2013-06-22 01:45:00,49.6,47.7,30.09,SE,132,0.0,0.0,93,0.00,,,0.00,0,WeatherCatV1.14B232,2013-06-22 08:45:00,
2013-06-22 01:50:00,49.5,47.6,30.09,SE,132,0.0,0.0,93,0.00,,,0.00,0,WeatherCatV1.14B232,2013-06-22 08:50:00,
2013-06-22 01:55:00,49.5,47.6,30.09,SE,132,0.0,0.0,93,0.00,,,0.00,0,WeatherCatV1.14B232,2013-06-22 08:55:00,
2013-06-22 02:00:00,49.4,47.5,30.08,SE,132,0.0,0.0,93,0.00,,,0.00,0,WeatherCatV1.14B232,2013-06-22 09:00:00,
2013-06-22 02:05:00,49.4,47.5,30.08,SE,132,0.0,0.0,93,0.00,,,0.00,0,WeatherCatV1.14B232,2013-06-22 09:05:00,
2013-06-22 02:10:00,49.4,47.5,30.08,SE,132,0.0,0.0,93,0.00,,,0.00,0,WeatherCatV1.14B232,2013-06-22 09:10:00,
2013-06-22 02:15:00,49.2,47.3,30.09,SE,131,0.0,0.0,93,0.00,,,0.00,0,WeatherCatV1.14B232,2013-06-22 09:15:00,
2013-06-22 02:20:00,49.2,47.3,30.09,SE,132,0.0,0.0,93,0.00,,,0.00,0,WeatherCatV1.14B232,2013-06-22 09:20:00,
2013-06-22 02:25:00,49.2,47.5,30.09,SE,132,0.0,0.0,94,0.00,,,0.00,0,WeatherCatV1.14B232,2013-06-22 09:25:00,
2013-06-22 02:30:00,49.2,47.5,30.09,SE,132,0.0,0.0,94,0.00,,,0.00,0,WeatherCatV1.14B232,2013-06-22 09:30:00,
2013-06-22 02:35:00,49.2,47.5,30.09,SE,132,0.0,0.0,94,0.00,,,0.00,0,WeatherCatV1.14B232,2013-06-22 09:35:00,
2013-06-22 02:40:00,49.2,47.5,30.09,SE,132,0.0,0.0,94,0.00,,,0.00,0,WeatherCatV1.14B232,2013-06-22 09:40:00,
2013-06-22 02:45:00,49.2,47.5,30.09,SE,131,0.0,0.0,94,0.00,,,0.00,0,WeatherCatV1.14B232,2013-06-22 09:45:00,
2013-06-22 02:50:00,49.2,47.5,30.09,SE,132,0.0,0.0,94,0.00,,,0.00,0,WeatherCatV1.14B232,2013-06-22 09:50:00,
2013-06-22 02:55:00,49.1,47.4,30.09,SE,132,0.0,0.0,94,0.00,,,0.00,0,WeatherCatV1.14B232,2013-06-22 09:55:00,
2013-06-22 03:00:00,49.1,47.4,30.08,SE,132,0.0,0.0,94,0.00,,,0.00,0,WeatherCatV1.14B232,2013-06-22 10:00:00,
2013-06-22 03:05:00,48.9,47.2,30.08,SE,132,0.0,0.0,94,0.00,,,0.00,0,WeatherCatV1.14B232,2013-06-22 10:05:00,
2013-06-22 03:10:00,48.9,47.2,30.08,SE,132,0.0,0.0,94,0.00,,,0.00,0,WeatherCatV1.14B232,2013-06-22 10:10:00,
2013-06-22 03:15:00,48.8,47.2,30.08,SE,132,0.0,0.0,94,0.00,,,0.00,0,WeatherCatV1.14B232,2013-06-22 10:15:00,
2013-06-22 03:20:00,48.8,47.2,30.08,SE,132,0.0,0.0,94,0.00,,,0.00,0,WeatherCatV1.14B232,2013-06-22 10:20:00,
2013-06-22 03:25:00,48.6,47.0,30.08,SE,132,0.0,0.0,94,0.00,,,0.00,0,WeatherCatV1.14B232,2013-06-22 10:25:00,
2013-06-22 03:30:00,48.6,47.0,30.08,SE,132,0.0,0.0,94,0.00,,,0.00,0,WeatherCatV1.14B232,2013-06-22 10:30:00,
2013-06-22 03:35:00,48.5,46.9,30.08,SE,132,0.0,0.0,94,0.00,,,0.00,0,WeatherCatV1.14B232,2013-06-22 10:35:00,
2013-06-22 03:40:00,48.5,46.9,30.08,SE,131,0.0,0.0,94,0.00,,,0.00,0,WeatherCatV1.14B232,2013-06-22 10:40:00,
2013-06-22 03:45:00,48.5,46.9,30.08,SE,132,0.0,0.0,94,0.00,,,0.00,0,WeatherCatV1.14B232,2013-06-22 10:45:00,
2013-06-22 03:50:00,48.5,46.9,30.08,SE,132,0.0,0.0,94,0.00,,,0.00,0,WeatherCatV1.14B232,2013-06-22 10:50:00,
2013-06-22 03:55:00,48.3,46.7,30.08,SE,132,0.0,0.0,94,0.00,,,0.00,0,WeatherCatV1.14B232,2013-06-22 10:55:00,
2013-06-22 04:00:00,48.3,46.7,30.07,SE,132,0.0,0.0,94,0.00,,,0.00,0,WeatherCatV1.14B232,2013-06-22 11:00:00,
2013-06-22 04:05:00,48.3,46.9,30.07,SE,132,0.0,0.0,95,0.00,,,0.00,0,WeatherCatV1.14B232,2013-06-22 11:05:00,
2013-06-22 04:10:00,48.2,46.8,30.07,SE,132,0.0,0.0,95,0.00,,,0.00,0,WeatherCatV1.14B232,2013-06-22 11:10:00,
2013-06-22 04:15:00,48.2,46.8,30.07,SE,132,0.0,0.0,95,0.00,,,0.00,0,WeatherCatV1.14B232,2013-06-22 11:15:00,
2013-06-22 04:20:00,48.2,46.8,30.07,SE,132,0.0,0.0,95,0.00,,,0.00,0,WeatherCatV1.14B232,2013-06-22 11:20:00,
2013-06-22 04:25:00,48.2,46.8,30.07,SE,132,0.0,0.0,95,0.00,,,0.00,0,WeatherCatV1.14B232,2013-06-22 11:25:00,
2013-06-22 04:30:00,48.2,46.8,30.07,SE,132,0.0,0.0,95,0.00,,,0.00,0,WeatherCatV1.14B232,2013-06-22 11:30:00,
2013-06-22 04:35:00,48.2,46.8,30.07,SE,131,0.0,0.0,95,0.00,,,0.00,0,WeatherCatV1.14B232,2013-06-22 11:35:00,
2013-06-22 04:40:00,48.2,46.8,30.07,SE,132,0.0,0.0,95,0.00,,,0.00,0,WeatherCatV1.14B232,2013-06-22 11:40:00,
2013-06-22 04:45:00,48.2,46.8,30.07,SE,132,0.0,0.0,95,0.00,,,0.00,0,WeatherCatV1.14B232,2013-06-22 11:45:00,
2013-06-22 04:50:00,48.2,46.8,30.07,SE,132,0.0,0.0,95,0.00,,,0.00,0,WeatherCatV1.14B232,2013-06-22 11:50:00,
2013-06-22 04:55:00,48.2,46.8,30.07,South,189,0.0,0.0,95,0.00,,,0.00,0,WeatherCatV1.14B232,2013-06-22 11:55:00,
2013-06-22 05:00:00,48.2,46.8,30.06,South,189,0.0,0.0,95,0.00,,,0.00,5,WeatherCatV1.14B232,2013-06-22 12:00:00,
2013-06-22 05:05:00,48.2,46.8,30.06,South,189,0.0,0.0,95,0.00,,,0.00,7,WeatherCatV1.14B232,2013-06-22 12:05:00,
2013-06-22 05:10:00,48.0,46.6,30.06,South,189,0.0,0.0,95,0.00,,,0.00,7,WeatherCatV1.14B232,2013-06-22 12:10:00,
2013-06-22 05:15:00,48.0,46.6,30.06,South,189,0.0,0.0,95,0.00,,,0.00,9,WeatherCatV1.14B232,2013-06-22 12:15:00,
2013-06-22 05:20:00,48.0,46.6,30.06,South,189,0.0,0.0,95,0.00,,,0.00,11,WeatherCatV1.14B232,2013-06-22 12:20:00,
2013-06-22 05:25:00,48.0,46.6,30.06,South,189,0.0,0.0,95,0.00,,,0.00,12,WeatherCatV1.14B232,2013-06-22 12:25:00,
2013-06-22 05:30:00,48.0,46.6,30.05,South,189,0.0,0.0,95,0.00,,,0.00,16,WeatherCatV1.14B232,2013-06-22 12:30:00,
2013-06-22 05:35:00,48.0,46.6,30.05,South,189,0.0,0.0,95,0.00,,,0.00,19,WeatherCatV1.14B232,2013-06-22 12:35:00,
2013-06-22 05:40:00,48.2,46.8,30.05,South,189,0.0,0.0,95,0.00,,,0.00,21,WeatherCatV1.14B232,2013-06-22 12:40:00,
2013-06-22 05:45:00,48.2,46.8,30.06,South,189,0.0,0.0,95,0.00,,,0.00,23,WeatherCatV1.14B232,2013-06-22 12:45:00,
2013-06-22 05:50:00,48.3,47.2,30.06,South,189,0.0,0.0,96,0.00,,,0.00,25,WeatherCatV1.14B232,2013-06-22 12:50:00,
2013-06-22 05:55:00,48.3,47.2,30.06,South,189,0.0,0.0,96,0.00,,,0.00,26,WeatherCatV1.14B232,2013-06-22 12:55:00,
2013-06-22 06:00:00,48.3,47.2,30.05,South,189,0.0,0.0,96,0.00,,,0.00,47,WeatherCatV1.14B232,2013-06-22 13:00:00,
2013-06-22 06:05:00,48.6,47.5,30.05,SSW,198,0.0,0.0,96,0.00,,,0.00,37,WeatherCatV1.14B232,2013-06-22 13:05:00,
2013-06-22 06:10:00,48.6,47.5,30.05,SSW,198,0.0,0.0,96,0.00,,,0.00,67,WeatherCatV1.14B232,2013-06-22 13:10:00,
2013-06-22 06:15:00,48.8,47.7,30.06,SSW,198,0.0,0.0,96,0.00,,,0.00,47,WeatherCatV1.14B232,2013-06-22 13:15:00,
2013-06-22 06:20:00,48.9,47.8,30.06,SSW,198,0.0,0.0,96,0.00,,,0.00,35,WeatherCatV1.14B232,2013-06-22 13:20:00,
2013-06-22 06:25:00,49.1,48.0,30.06,SSW,198,0.0,0.0,96,0.00,,,0.00,62,WeatherCatV1.14B232,2013-06-22 13:25:00,
2013-06-22 06:30:00,49.2,48.1,30.06,SSW,198,0.0,0.0,96,0.00,,,0.00,32,WeatherCatV1.14B232,2013-06-22 13:30:00,
2013-06-22 06:35:00,49.4,48.3,30.06,SSW,198,0.0,0.0,96,0.00,,,0.00,40,WeatherCatV1.14B232,2013-06-22 13:35:00,
2013-06-22 06:40:00,49.5,48.4,30.06,SSW,198,0.0,0.0,96,0.00,,,0.00,35,WeatherCatV1.14B232,2013-06-22 13:40:00,
2013-06-22 06:45:00,49.6,48.5,30.06,SSW,198,0.0,0.0,96,0.00,,,0.00,54,WeatherCatV1.14B232,2013-06-22 13:45:00,
2013-06-22 06:50:00,49.9,49.1,30.06,SSW,198,0.0,0.0,97,0.00,,,0.00,44,WeatherCatV1.14B232,2013-06-22 13:50:00,
2013-06-22 06:55:00,50.1,49.3,30.06,SSW,198,0.0,0.0,97,0.00,,,0.00,40,WeatherCatV1.14B232,2013-06-22 13:55:00,
2013-06-22 07:00:00,50.2,49.4,30.05,SSW,198,0.0,0.0,97,0.00,,,0.00,84,WeatherCatV1.14B232,2013-06-22 14:00:00,
2013-06-22 07:05:00,50.7,49.9,30.05,South,188,0.0,2.0,97,0.00,,,0.00,42,WeatherCatV1.14B232,2013-06-22 14:05:00,
2013-06-22 07:10:00,51.0,50.2,30.05,South,188,0.0,0.0,97,0.00,,,0.00,49,WeatherCatV1.14B232,2013-06-22 14:10:00,
2013-06-22 07:15:00,51.1,50.3,30.05,South,188,0.0,0.0,97,0.00,,,0.00,241,WeatherCatV1.14B232,2013-06-22 14:15:00,
2013-06-22 07:20:00,51.4,50.6,30.05,South,188,0.0,0.0,97,0.00,,,0.00,253,WeatherCatV1.14B232,2013-06-22 14:20:00,
2013-06-22 07:25:00,51.9,51.1,30.05,South,188,0.0,0.0,97,0.00,,,0.00,265,WeatherCatV1.14B232,2013-06-22 14:25:00,
2013-06-22 07:30:00,52.5,51.7,30.05,South,188,0.0,1.0,97,0.00,,,0.00,279,WeatherCatV1.14B232,2013-06-22 14:30:00,
2013-06-22 07:35:00,53.1,52.3,30.05,South,188,0.0,0.0,97,0.00,,,0.00,295,WeatherCatV1.14B232,2013-06-22 14:35:00,
2013-06-22 07:40:00,53.5,52.7,30.05,South,188,0.0,0.0,97,0.00,,,0.00,297,WeatherCatV1.14B232,2013-06-22 14:40:00,
2013-06-22 07:45:00,53.9,53.1,30.05,South,188,0.0,0.0,97,0.00,,,0.00,311,WeatherCatV1.14B232,2013-06-22 14:45:00,
2013-06-22 07:50:00,54.4,53.6,30.05,South,188,0.0,0.0,97,0.00,,,0.00,345,WeatherCatV1.14B232,2013-06-22 14:50:00,
2013-06-22 07:55:00,54.8,54.0,30.05,South,188,0.0,0.0,97,0.00,,,0.00,366,WeatherCatV1.14B232,2013-06-22 14:55:00,
2013-06-22 08:00:00,55.3,54.5,30.05,South,188,0.0,0.0,97,0.00,,,0.00,378,WeatherCatV1.14B232,2013-06-22 15:00:00,
2013-06-22 08:05:00,56.2,55.4,30.05,South,188,0.0,0.0,97,0.00,,,0.00,396,WeatherCatV1.14B232,2013-06-22 15:05:00,
2013-06-22 08:06:00,56.2,55.4,30.05,South,188,0.0,1.0,97,0.00,,,0.00,397,WeatherCatV1.14B232,2013-06-22 15:06:00,
2013-06-22 08:11:00,56.5,55.4,30.05,South,188,0.0,0.0,96,0.00,,,0.00,401,WeatherCatV1.14B232,2013-06-22 15:11:00,
2013-06-22 08:16:00,56.9,55.2,30.04,South,188,0.0,0.0,94,0.00,,,0.00,373,WeatherCatV1.14B232,2013-06-22 15:16:00,
2013-06-22 08:21:00,57.5,54.9,30.04,South,188,0.0,0.0,91,0.00,,,0.00,392,WeatherCatV1.14B232,2013-06-22 15:21:00,
2013-06-22 08:26:00,58.1,54.9,30.04,South,188,0.0,1.0,89,0.00,,,0.00,446,WeatherCatV1.14B232,2013-06-22 15:26:00,
2013-06-22 08:31:00,58.9,54.4,30.03,South,188,0.0,0.0,85,0.00,,,0.00,457,WeatherCatV1.14B232,2013-06-22 15:31:00,
2013-06-22 08:36:00,59.5,53.7,30.03,South,188,0.0,2.0,81,0.00,,,0.00,468,WeatherCatV1.14B232,2013-06-22 15:36:00,
2013-06-22 08:41:00,60.5,54.3,30.03,South,188,0.0,1.0,80,0.00,,,0.00,478,WeatherCatV1.14B232,2013-06-22 15:41:00,
2013-06-22 08:46:00,61.6,54.0,30.03,South,188,0.0,0.0,76,0.00,,,0.00,494,WeatherCatV1.14B232,2013-06-22 15:46:00,
2013-06-22 08:51:00,62.4,54.0,30.03,South,188,0.0,0.0,74,0.00,,,0.00,508,WeatherCatV1.14B232,2013-06-22 15:51:00,
2013-06-22 08:56:00,63.2,53.2,30.03,ESE,105,0.0,1.0,70,0.00,,,0.00,520,WeatherCatV1.14B232,2013-06-22 15:56:00,
2013-06-22 09:01:00,63.9,53.5,30.03,ESE,110,0.0,1.0,69,0.00,,,0.00,533,WeatherCatV1.14B232,2013-06-22 16:01:00,
2013-06-22 09:06:00,64.2,53.4,30.03,ESE,112,1.0,1.0,68,0.00,,,0.00,540,WeatherCatV1.14B232,2013-06-22 16:06:00,
2013-06-22 09:11:00,64.5,53.7,30.03,ESE,113,0.0,0.0,68,0.00,,,0.00,559,WeatherCatV1.14B232,2013-06-22 16:11:00,
2013-06-22 09:16:00,64.8,53.2,30.03,ESE,103,0.0,3.0,66,0.00,,,0.00,575,WeatherCatV1.14B232,2013-06-22 16:16:00,
2013-06-22 09:21:00,65.2,52.7,30.03,ESE,111,0.0,4.0,64,0.00,,,0.00,587,WeatherCatV1.14B232,2013-06-22 16:21:00,
2013-06-22 09:26:00,65.2,53.1,30.03,ENE,72,0.0,2.0,65,0.00,,,0.00,598,WeatherCatV1.14B232,2013-06-22 16:26:00,
2013-06-22 09:31:00,65.5,54.2,30.02,ENE,66,0.0,0.0,67,0.00,,,0.00,610,WeatherCatV1.14B232,2013-06-22 16:31:00,
2013-06-22 09:36:00,65.5,53.0,30.02,NE,47,0.0,1.0,64,0.00,,,0.00,624,WeatherCatV1.14B232,2013-06-22 16:36:00,
2013-06-22 09:41:00,66.1,54.0,30.02,NE,47,0.0,1.0,65,0.00,,,0.00,640,WeatherCatV1.14B232,2013-06-22 16:41:00,
2013-06-22 09:46:00,66.9,54.7,30.02,NE,47,0.0,1.0,65,0.00,,,0.00,652,WeatherCatV1.14B232,2013-06-22 16:46:00,
2013-06-22 09:51:00,67.4,54.4,30.02,NE,49,1.0,1.0,63,0.00,,,0.00,663,WeatherCatV1.14B232,2013-06-22 16:51:00,
2013-06-22 09:56:00,67.6,52.8,30.02,East,93,0.0,3.0,59,0.00,,,0.00,675,WeatherCatV1.14B232,2013-06-22 16:56:00,
2013-06-22 10:01:00,67.6,53.2,30.02,East,94,3.0,3.0,60,0.00,,,0.00,684,WeatherCatV1.14B232,2013-06-22 17:01:00,
2013-06-22 10:06:00,67.3,53.4,30.02,East,98,0.0,1.0,61,0.00,,,0.00,694,WeatherCatV1.14B232,2013-06-22 17:06:00,
2013-06-22 10:11:00,67.8,52.9,30.02,South,173,0.0,2.0,59,0.00,,,0.00,707,WeatherCatV1.14B232,2013-06-22 17:11:00,
2013-06-22 10:16:00,67.3,52.5,30.01,SSW,207,1.0,3.0,59,0.00,,,0.00,729,WeatherCatV1.14B232,2013-06-22 17:16:00,
2013-06-22 10:21:00,67.4,53.5,30.01,ESE,119,0.0,1.0,61,0.00,,,0.00,763,WeatherCatV1.14B232,2013-06-22 17:21:00,
2013-06-22 10:26:00,66.6,53.6,30.01,East,93,0.0,0.0,63,0.00,,,0.00,773,WeatherCatV1.14B232,2013-06-22 17:26:00,
2013-06-22 10:31:00,66.9,53.0,30.00,East,92,0.0,1.0,61,0.00,,,0.00,798,WeatherCatV1.14B232,2013-06-22 17:31:00,
2013-06-22 10:36:00,67.6,52.8,30.00,SE,138,0.0,1.0,59,0.00,,,0.00,809,WeatherCatV1.14B232,2013-06-22 17:36:00,
2013-06-22 10:41:00,68.3,52.9,30.00,SE,132,0.0,1.0,58,0.00,,,0.00,802,WeatherCatV1.14B232,2013-06-22 17:41:00,
2013-06-22 10:46:00,68.4,52.6,30.00,SE,132,0.0,1.0,57,0.00,,,0.00,837,WeatherCatV1.14B232,2013-06-22 17:46:00,
2013-06-22 10:51:00,68.9,53.5,30.00,WNW,300,0.0,1.0,58,0.00,,,0.00,877,WeatherCatV1.14B232,2013-06-22 17:51:00,
2013-06-22 10:56:00,68.1,53.7,30.00,SSE,159,0.0,1.0,60,0.00,,,0.00,853,WeatherCatV1.14B232,2013-06-22 17:56:00,
2013-06-22 11:01:00,67.6,52.8,30.00,SSW,202,1.0,3.0,59,0.00,,,0.00,853,WeatherCatV1.14B232,2013-06-22 18:01:00,
2013-06-22 11:06:00,67.9,52.6,30.00,WSW,244,0.0,3.0,58,0.00,,,0.00,870,WeatherCatV1.14B232,2013-06-22 18:06:00,
2013-06-22 11:11:00,68.4,54.0,30.00,NW,314,0.0,2.0,60,0.00,,,0.00,891,WeatherCatV1.14B232,2013-06-22 18:11:00,
2013-06-22 11:16:00,67.1,52.3,30.00,NE,42,0.0,3.0,59,0.00,,,0.00,947,WeatherCatV1.14B232,2013-06-22 18:16:00,
2013-06-22 11:21:00,66.9,52.6,30.00,ESE,111,0.0,0.0,60,0.00,,,0.00,872,WeatherCatV1.14B232,2013-06-22 18:21:00,
2013-06-22 11:26:00,68.9,53.5,30.00,SE,143,0.0,1.0,58,0.00,,,0.00,895,WeatherCatV1.14B232,2013-06-22 18:26:00,
2013-06-22 11:31:00,69.1,54.2,29.99,SE,146,0.0,1.0,59,0.00,,,0.00,896,WeatherCatV1.14B232,2013-06-22 18:31:00,
2013-06-22 11:36:00,71.1,56.5,29.99,SSE,167,0.0,1.0,60,0.00,,,0.00,874,WeatherCatV1.14B232,2013-06-22 18:36:00,
2013-06-22 11:37:00,71.1,54.6,29.99,SSE,168,1.0,1.0,56,0.00,,,0.00,870,WeatherCatV1.14B232,2013-06-22 18:37:00,
2013-06-22 11:42:00,69.6,54.2,29.99,NW,308,0.0,4.0,58,0.00,,,0.00,882,WeatherCatV1.14B232,2013-06-22 18:42:00,
2013-06-22 11:47:00,68.6,53.2,29.99,North,9,2.0,4.0,58,0.00,,,0.00,898,WeatherCatV1.14B232,2013-06-22 18:47:00,
2013-06-22 11:52:00,68.3,52.5,29.99,NNW,348,2.0,4.0,57,0.00,,,0.00,944,WeatherCatV1.14B232,2013-06-22 18:52:00,
2013-06-22 11:57:00,67.9,53.5,29.99,West,259,0.0,2.0,60,0.00,,,0.00,932,WeatherCatV1.14B232,2013-06-22 18:57:00,
2013-06-22 12:02:00,68.8,52.0,29.99,ESE,109,0.0,3.0,55,0.00,,,0.00,891,WeatherCatV1.14B232,2013-06-22 19:02:00,
2013-06-22 12:07:00,68.3,52.5,29.99,NNW,329,0.0,1.0,57,0.00,,,0.00,896,WeatherCatV1.14B232,2013-06-22 19:07:00,
2013-06-22 12:12:00,69.9,54.4,29.99,WSW,240,1.0,3.0,58,0.00,,,0.00,900,WeatherCatV1.14B232,2013-06-22 19:12:00,
2013-06-22 12:17:00,71.5,54.0,29.98,West,269,0.0,1.0,54,0.00,,,0.00,918,WeatherCatV1.14B232,2013-06-22 19:17:00,
2013-06-22 12:22:00,71.6,52.5,29.98,NW,317,0.0,5.0,51,0.00,,,0.00,926,WeatherCatV1.14B232,2013-06-22 19:22:00,
2013-06-22 12:27:00,72.0,54.4,29.98,WNW,289,2.0,2.0,54,0.00,,,0.00,930,WeatherCatV1.14B232,2013-06-22 19:27:00,
2013-06-22 12:32:00,70.4,52.9,29.97,ESE,103,1.0,4.0,54,0.00,,,0.00,925,WeatherCatV1.14B232,2013-06-22 19:32:00,
2013-06-22 12:37:00,70.4,51.9,29.97,South,170,0.0,2.0,52,0.00,,,0.00,925,WeatherCatV1.14B232,2013-06-22 19:37:00,
2013-06-22 12:42:00,71.5,54.0,29.97,East,87,0.0,2.0,54,0.00,,,0.00,914,WeatherCatV1.14B232,2013-06-22 19:42:00,
2013-06-22 12:47:00,72.5,54.4,29.97,West,275,0.0,3.0,53,0.00,,,0.00,923,WeatherCatV1.14B232,2013-06-22 19:47:00,
2013-06-22 12:52:00,72.8,55.7,29.97,West,275,2.0,2.0,55,0.00,,,0.00,919,WeatherCatV1.14B232,2013-06-22 19:52:00,
2013-06-22 12:57:00,71.6,53.5,29.97,NNE,22,1.0,3.0,53,0.00,,,0.00,921,WeatherCatV1.14B232,2013-06-22 19:57:00,
2013-06-22 13:02:00,70.8,53.8,29.96,NW,306,1.0,3.0,55,0.00,,,0.00,925,WeatherCatV1.14B232,2013-06-22 20:02:00,
2013-06-22 13:07:00,72.0,54.4,29.96,SW,227,0.0,1.0,54,0.00,,,0.00,939,WeatherCatV1.14B232,2013-06-22 20:07:00,
2013-06-22 13:12:00,72.8,54.1,29.96,NNE,25,0.0,1.0,52,0.00,,,0.00,923,WeatherCatV1.14B232,2013-06-22 20:12:00,
2013-06-22 13:17:00,73.5,53.2,29.95,SW,228,0.0,1.0,49,0.00,,,0.00,926,WeatherCatV1.14B232,2013-06-22 20:17:00,
2013-06-22 13:22:00,73.7,55.0,29.95,ESE,107,3.0,3.0,52,0.00,,,0.00,956,WeatherCatV1.14B232,2013-06-22 20:22:00,
2013-06-22 13:27:00,72.8,53.1,29.95,East,96,0.0,2.0,50,0.00,,,0.00,925,WeatherCatV1.14B232,2013-06-22 20:27:00,
2013-06-22 13:32:00,72.8,52.5,29.95,NE,38,0.0,1.0,49,0.00,,,0.00,918,WeatherCatV1.14B232,2013-06-22 20:32:00,
2013-06-22 13:37:00,73.3,53.5,29.95,South,178,0.0,3.0,50,0.00,,,0.00,916,WeatherCatV1.14B232,2013-06-22 20:37:00,
2013-06-22 13:42:00,74.6,54.2,29.95,West,280,0.0,4.0,49,0.00,,,0.00,914,WeatherCatV1.14B232,2013-06-22 20:42:00,
2013-06-22 13:47:00,73.9,53.0,29.95,West,261,0.0,3.0,48,0.00,,,0.00,911,WeatherCatV1.14B232,2013-06-22 20:47:00,
2013-06-22 13:52:00,74.7,54.3,29.95,WNW,290,0.0,2.0,49,0.00,,,0.00,905,WeatherCatV1.14B232,2013-06-22 20:52:00,
2013-06-22 13:57:00,74.2,54.3,29.95,NW,319,0.0,3.0,50,0.00,,,0.00,909,WeatherCatV1.14B232,2013-06-22 20:57:00,
2013-06-22 14:02:00,75.1,56.3,29.94,NE,52,1.0,3.0,52,0.00,,,0.00,904,WeatherCatV1.14B232,2013-06-22 21:02:00,
2013-06-22 14:07:00,74.4,55.1,29.94,ENE,67,0.0,2.0,51,0.00,,,0.00,900,WeatherCatV1.14B232,2013-06-22 21:07:00,
2013-06-22 14:12:00,75.4,52.6,29.94,SSE,154,0.0,3.0,45,0.00,,,0.00,896,WeatherCatV1.14B232,2013-06-22 21:12:00,
2013-06-22 14:17:00,74.6,52.4,29.94,SW,221,0.0,0.0,46,0.00,,,0.00,893,WeatherCatV1.14B232,2013-06-22 21:17:00,
2013-06-22 14:22:00,74.9,54.4,29.94,SW,218,0.0,1.0,49,0.00,,,0.00,886,WeatherCatV1.14B232,2013-06-22 21:22:00,
2013-06-22 14:27:00,76.1,55.5,29.94,SW,214,0.0,3.0,49,0.00,,,0.00,884,WeatherCatV1.14B232,2013-06-22 21:27:00,
2013-06-22 14:32:00,74.2,51.5,29.93,SSE,148,2.0,2.0,45,0.00,,,0.00,872,WeatherCatV1.14B232,2013-06-22 21:32:00,
2013-06-22 14:37:00,73.7,53.3,29.93,SSE,148,0.0,1.0,49,0.00,,,0.00,867,WeatherCatV1.14B232,2013-06-22 21:37:00,
2013-06-22 14:42:00,77.2,53.6,29.93,WSW,254,1.0,1.0,44,0.00,,,0.00,863,WeatherCatV1.14B232,2013-06-22 21:42:00,
2013-06-22 14:47:00,75.6,55.1,29.92,SSE,149,1.0,1.0,49,0.00,,,0.00,858,WeatherCatV1.14B232,2013-06-22 21:47:00,
2013-06-22 14:52:00,74.7,53.1,29.92,East,94,0.0,2.0,47,0.00,,,0.00,853,WeatherCatV1.14B232,2013-06-22 21:52:00,
2013-06-22 14:57:00,74.2,52.1,29.92,ESE,105,0.0,3.0,46,0.00,,,0.00,844,WeatherCatV1.14B232,2013-06-22 21:57:00,
2013-06-22 15:02:00,74.2,52.1,29.92,ESE,107,0.0,5.0,46,0.00,,,0.00,837,WeatherCatV1.14B232,2013-06-22 22:02:00,
2013-06-22 15:07:00,74.6,53.6,29.92,ESE,114,2.0,3.0,48,0.00,,,0.00,823,WeatherCatV1.14B232,2013-06-22 22:07:00,
2013-06-22 15:12:00,75.8,52.3,29.92,SW,219,2.0,3.0,44,0.00,,,0.00,816,WeatherCatV1.14B232,2013-06-22 22:12:00,
2013-06-22 15:17:00,76.0,54.3,29.92,SW,234,3.0,5.0,47,0.00,,,0.00,807,WeatherCatV1.14B232,2013-06-22 22:17:00,
2013-06-22 15:22:00,76.0,50.6,29.92,SW,234,0.0,1.0,41,0.00,,,0.00,798,WeatherCatV1.14B232,2013-06-22 22:22:00,
2013-06-22 15:27:00,76.0,53.7,29.92,WSW,238,0.0,0.0,46,0.00,,,0.00,791,WeatherCatV1.14B232,2013-06-22 22:27:00,
2013-06-22 15:32:00,77.4,53.8,29.91,WSW,238,0.0,0.0,44,0.00,,,0.00,786,WeatherCatV1.14B232,2013-06-22 22:32:00,
2013-06-22 15:37:00,77.0,53.4,29.91,WSW,256,0.0,2.0,44,0.00,,,0.00,779,WeatherCatV1.14B232,2013-06-22 22:37:00,
2013-06-22 15:42:00,76.8,50.6,29.91,WSW,245,1.0,3.0,40,0.00,,,0.00,770,WeatherCatV1.14B232,2013-06-22 22:42:00,
2013-06-22 15:47:00,76.5,51.7,29.91,West,260,0.0,3.0,42,0.00,,,0.00,763,WeatherCatV1.14B232,2013-06-22 22:47:00,
2013-06-22 15:52:00,76.1,51.3,29.91,NW,320,1.0,3.0,42,0.00,,,0.00,758,WeatherCatV1.14B232,2013-06-22 22:52:00,
2013-06-22 15:57:00,76.1,52.0,29.91,NW,320,0.0,2.0,43,0.00,,,0.00,751,WeatherCatV1.14B232,2013-06-22 22:57:00,
2013-06-22 16:02:00,76.1,51.3,29.90,West,259,0.0,1.0,42,0.00,,,0.00,747,WeatherCatV1.14B232,2013-06-22 23:02:00,
2013-06-22 16:07:00,76.8,50.6,29.90,West,281,1.0,2.0,40,0.00,,,0.00,624,WeatherCatV1.14B232,2013-06-22 23:07:00,
2013-06-22 16:12:00,76.3,50.8,29.90,West,280,1.0,2.0,41,0.00,,,0.00,411,WeatherCatV1.14B232,2013-06-22 23:12:00,
2013-06-22 16:17:00,75.6,49.6,29.89,WSW,251,0.0,2.0,40,0.00,,,0.00,545,WeatherCatV1.14B232,2013-06-22 23:17:00,
2013-06-22 16:22:00,75.3,50.6,29.89,NNW,342,0.0,1.0,42,0.00,,,0.00,603,WeatherCatV1.14B232,2013-06-22 23:22:00,
2013-06-22 16:27:00,75.4,52.6,29.89,NE,56,0.0,1.0,45,0.00,,,0.00,666,WeatherCatV1.14B232,2013-06-22 23:27:00,
2013-06-22 16:32:00,76.3,51.5,29.89,NE,51,0.0,1.0,42,0.00,,,0.00,726,WeatherCatV1.14B232,2013-06-22 23:32:00,
2013-06-22 16:37:00,76.0,49.9,29.89,NW,305,0.0,0.0,40,0.00,,,0.00,705,WeatherCatV1.14B232,2013-06-22 23:37:00,
2013-06-22 16:42:00,76.0,51.9,29.89,West,279,0.0,2.0,43,0.00,,,0.00,675,WeatherCatV1.14B232,2013-06-22 23:42:00,
2013-06-22 16:47:00,75.6,52.7,29.89,WSW,245,3.0,3.0,45,0.00,,,0.00,385,WeatherCatV1.14B232,2013-06-22 23:47:00,
2013-06-22 16:52:00,75.3,51.9,29.89,WSW,245,0.0,1.0,44,0.00,,,0.00,450,WeatherCatV1.14B232,2013-06-22 23:52:00,
2013-06-22 16:57:00,75.8,54.1,29.89,WNW,293,0.0,2.0,47,0.00,,,0.00,612,WeatherCatV1.14B232,2013-06-22 23:57:00,
2013-06-22 17:02:00,75.4,52.6,29.88,WNW,298,0.0,1.0,45,0.00,,,0.00,638,WeatherCatV1.14B232,2013-06-23 00:02:00,
2013-06-22 17:07:00,75.6,52.7,29.88,NNW,340,1.0,3.0,45,0.00,,,0.00,615,WeatherCatV1.14B232,2013-06-23 00:07:00,
2013-06-22 17:12:00,75.3,51.9,29.88,North,0,0.0,4.0,44,0.00,,,0.00,512,WeatherCatV1.14B232,2013-06-23 00:12:00,
2013-06-22 17:17:00,75.3,51.9,29.87,West,277,1.0,2.0,44,0.00,,,0.00,529,WeatherCatV1.14B232,2013-06-23 00:17:00,
2013-06-22 17:22:00,75.3,53.1,29.87,WSW,253,1.0,4.0,46,0.00,,,0.00,575,WeatherCatV1.14B232,2013-06-23 00:22:00,
2013-06-22 17:27:00,75.4,53.2,29.87,WNW,290,0.0,1.0,46,0.00,,,0.00,489,WeatherCatV1.14B232,2013-06-23 00:27:00,
2013-06-22 17:32:00,75.3,51.2,29.87,WSW,243,0.0,1.0,43,0.00,,,0.00,183,WeatherCatV1.14B232,2013-06-23 00:32:00,
2013-06-22 17:37:00,75.4,52.6,29.87,West,279,0.0,1.0,45,0.00,,,0.00,186,WeatherCatV1.14B232,2013-06-23 00:37:00,
2013-06-22 17:42:00,74.9,53.3,29.87,North,351,1.0,2.0,47,0.00,,,0.00,199,WeatherCatV1.14B232,2013-06-23 00:42:00,
2013-06-22 17:47:00,74.4,51.0,29.87,WSW,247,2.0,3.0,44,0.00,,,0.00,151,WeatherCatV1.14B232,2013-06-23 00:47:00,
2013-06-22 17:52:00,74.0,50.1,29.87,SW,221,2.0,4.0,43,0.00,,,0.00,160,WeatherCatV1.14B232,2013-06-23 00:52:00,
2013-06-22 17:57:00,73.7,51.0,29.87,SW,221,0.0,1.0,45,0.00,,,0.00,176,WeatherCatV1.14B232,2013-06-23 00:57:00,
2013-06-22 18:02:00,73.9,50.6,29.86,WSW,241,0.0,2.0,44,0.00,,,0.00,452,WeatherCatV1.14B232,2013-06-23 01:02:00,
2013-06-22 18:07:00,74.0,50.7,29.86,WSW,254,1.0,1.0,44,0.00,,,0.00,439,WeatherCatV1.14B232,2013-06-23 01:07:00,
2013-06-22 18:12:00,74.2,52.1,29.86,West,268,0.0,0.0,46,0.00,,,0.00,415,WeatherCatV1.14B232,2013-06-23 01:12:00,
2013-06-22 18:17:00,74.2,50.9,29.86,West,268,0.0,1.0,44,0.00,,,0.00,410,WeatherCatV1.14B232,2013-06-23 01:17:00,
2013-06-22 18:22:00,74.0,51.9,29.86,West,276,1.0,2.0,46,0.00,,,0.00,383,WeatherCatV1.14B232,2013-06-23 01:22:00,
2013-06-22 18:27:00,73.7,51.0,29.86,WNW,301,0.0,5.0,45,0.00,,,0.00,176,WeatherCatV1.14B232,2013-06-23 01:27:00,
2013-06-22 18:32:00,73.3,51.3,29.86,WNW,302,0.0,1.0,46,0.00,,,0.00,134,WeatherCatV1.14B232,2013-06-23 01:32:00,
2013-06-22 18:37:00,73.3,51.3,29.86,West,268,0.0,1.0,46,0.00,,,0.00,76,WeatherCatV1.14B232,2013-06-23 01:37:00,
2013-06-22 18:42:00,73.2,51.2,29.86,West,268,0.0,0.0,46,0.00,,,0.00,77,WeatherCatV1.14B232,2013-06-23 01:42:00,
2013-06-22 18:47:00,73.0,50.4,29.85,West,268,0.0,1.0,45,0.00,,,0.00,88,WeatherCatV1.14B232,2013-06-23 01:47:00,
2013-06-22 18:52:00,73.0,49.2,29.85,West,263,0.0,2.0,43,0.00,,,0.00,86,WeatherCatV1.14B232,2013-06-23 01:52:00,
2013-06-22 18:57:00,72.8,52.5,29.85,West,263,0.0,0.0,49,0.00,,,0.00,171,WeatherCatV1.14B232,2013-06-23 01:57:00,
2013-06-22 19:02:00,72.7,49.5,29.85,West,267,0.0,1.0,44,0.00,,,0.00,70,WeatherCatV1.14B232,2013-06-23 02:02:00,
2013-06-22 19:07:00,72.3,52.1,29.85,West,267,0.0,0.0,49,0.00,,,0.00,69,WeatherCatV1.14B232,2013-06-23 02:07:00,
2013-06-22 19:12:00,72.1,50.7,29.85,West,268,0.0,0.0,47,0.00,,,0.00,54,WeatherCatV1.14B232,2013-06-23 02:12:00,
2013-06-22 19:17:00,72.1,52.4,29.85,WSW,257,0.0,0.0,50,0.00,,,0.00,46,WeatherCatV1.14B232,2013-06-23 02:17:00,
2013-06-22 19:22:00,71.8,49.9,29.85,WSW,257,0.0,1.0,46,0.00,,,0.00,40,WeatherCatV1.14B232,2013-06-23 02:22:00,
2013-06-22 19:27:00,71.8,51.0,29.85,WSW,257,0.0,0.0,48,0.00,,,0.00,37,WeatherCatV1.14B232,2013-06-23 02:27:00,
2013-06-22 19:32:00,71.6,51.4,29.85,WSW,255,0.0,1.0,49,0.00,,,0.00,33,WeatherCatV1.14B232,2013-06-23 02:32:00,
2013-06-22 19:37:00,71.3,51.1,29.85,WSW,255,0.0,0.0,49,0.00,,,0.00,30,WeatherCatV1.14B232,2013-06-23 02:37:00,
2013-06-22 19:42:00,70.9,52.9,29.85,WSW,255,1.0,1.0,53,0.00,,,0.00,35,WeatherCatV1.14B232,2013-06-23 02:42:00,
2013-06-22 19:47:00,70.8,54.3,29.84,NNW,333,0.0,3.0,56,0.00,,,0.00,28,WeatherCatV1.14B232,2013-06-23 02:47:00,
2013-06-22 19:52:00,70.6,54.6,29.84,NNW,333,0.0,3.0,57,0.00,,,0.00,28,WeatherCatV1.14B232,2013-06-23 02:52:00,
2013-06-22 19:57:00,70.3,55.7,29.84,NNW,333,0.0,0.0,60,0.00,,,0.00,26,WeatherCatV1.14B232,2013-06-23 02:57:00,
2013-06-22 20:02:00,69.9,55.8,29.84,NNW,333,0.0,2.0,61,0.00,,,0.00,25,WeatherCatV1.14B232,2013-06-23 03:02:00,
2013-06-22 20:07:00,69.8,55.7,29.84,NNW,333,0.0,0.0,61,0.00,,,0.00,25,WeatherCatV1.14B232,2013-06-23 03:07:00,
2013-06-22 20:12:00,69.6,56.4,29.84,NNW,333,0.0,1.0,63,0.00,,,0.00,26,WeatherCatV1.14B232,2013-06-23 03:12:00,
2013-06-22 20:17:00,69.3,56.6,29.85,NNW,333,0.0,1.0,64,0.00,,,0.00,25,WeatherCatV1.14B232,2013-06-23 03:17:00,
2013-06-22 20:22:00,68.9,56.6,29.85,NNW,333,0.0,0.0,65,0.00,,,0.00,23,WeatherCatV1.14B232,2013-06-23 03:22:00,
2013-06-22 20:27:00,68.8,57.0,29.85,NNW,333,0.0,0.0,66,0.00,,,0.00,21,WeatherCatV1.14B232,2013-06-23 03:27:00,
2013-06-22 20:32:00,68.8,57.0,29.85,NNW,333,0.0,0.0,66,0.00,,,0.00,18,WeatherCatV1.14B232,2013-06-23 03:32:00,
2013-06-22 20:37:00,68.6,56.8,29.85,NNW,333,0.0,2.0,66,0.00,,,0.00,16,WeatherCatV1.14B232,2013-06-23 03:37:00,
2013-06-22 20:42:00,68.6,56.8,29.85,NNW,333,0.0,0.0,66,0.00,,,0.00,14,WeatherCatV1.14B232,2013-06-23 03:42:00,
2013-06-22 20:47:00,68.4,57.0,29.84,NNW,333,0.0,0.0,67,0.00,,,0.00,12,WeatherCatV1.14B232,2013-06-23 03:47:00,
2013-06-22 20:52:00,68.3,56.9,29.84,NNW,340,0.0,1.0,67,0.00,,,0.00,11,WeatherCatV1.14B232,2013-06-23 03:52:00,
2013-06-22 20:57:00,68.1,57.5,29.84,NNW,340,0.0,0.0,69,0.00,,,0.00,9,WeatherCatV1.14B232,2013-06-23 03:57:00,
2013-06-22 21:01:00,67.9,56.9,29.84,NNW,340,0.0,2.0,68,0.00,,,0.00,9,WeatherCatV1.14B232,2013-06-23 04:01:00,
2013-06-22 21:06:00,67.6,57.1,29.84,NNW,340,0.0,0.0,69,0.00,,,0.00,9,WeatherCatV1.14B232,2013-06-23 04:06:00,
2013-06-22 21:11:00,67.3,56.8,29.84,NNW,340,0.0,1.0,69,0.00,,,0.00,5,WeatherCatV1.14B232,2013-06-23 04:11:00,
2013-06-22 21:16:00,66.9,57.2,29.84,NNW,340,0.0,0.0,71,0.00,,,0.00,5,WeatherCatV1.14B232,2013-06-23 04:16:00,
2013-06-22 21:21:00,66.6,57.3,29.84,NNW,340,0.0,0.0,72,0.00,,,0.00,0,WeatherCatV1.14B232,2013-06-23 04:21:00,
2013-06-22 21:26:00,66.4,57.5,29.84,NNW,340,0.0,0.0,73,0.00,,,0.00,0,WeatherCatV1.14B232,2013-06-23 04:26:00,
2013-06-22 21:31:00,66.1,57.2,29.84,NNW,340,0.0,0.0,73,0.00,,,0.00,0,WeatherCatV1.14B232,2013-06-23 04:31:00,
2013-06-22 21:36:00,66.0,57.5,29.84,NNW,340,0.0,0.0,74,0.00,,,0.00,0,WeatherCatV1.14B232,2013-06-23 04:36:00,
2013-06-22 21:41:00,65.6,57.5,29.84,NNW,340,0.0,0.0,75,0.00,,,0.00,0,WeatherCatV1.14B232,2013-06-23 04:41:00,
2013-06-22 21:46:00,65.3,57.2,29.84,NNW,340,0.0,0.0,75,0.00,,,0.00,0,WeatherCatV1.14B232,2013-06-23 04:46:00,
2013-06-22 21:51:00,65.0,57.2,29.84,NNW,340,0.0,0.0,76,0.00,,,0.00,0,WeatherCatV1.14B232,2013-06-23 04:51:00,
2013-06-22 21:56:00,64.7,57.3,29.84,NNW,340,0.0,0.0,77,0.00,,,0.00,0,WeatherCatV1.14B232,2013-06-23 04:56:00,
2013-06-22 22:01:00,64.3,57.3,29.84,NNW,340,0.0,0.0,78,0.00,,,0.00,0,WeatherCatV1.14B232,2013-06-23 05:01:00,
2013-06-22 22:06:00,64.2,57.2,29.84,NNW,340,0.0,0.0,78,0.00,,,0.00,0,WeatherCatV1.14B232,2013-06-23 05:06:00,
2013-06-22 22:11:00,63.9,57.3,29.84,NNW,340,0.0,0.0,79,0.00,,,0.00,0,WeatherCatV1.14B232,2013-06-23 05:11:00,
2013-06-22 22:16:00,63.5,56.9,29.84,NNW,340,0.0,0.0,79,0.00,,,0.00,0,WeatherCatV1.14B232,2013-06-23 05:16:00,
2013-06-22 22:21:00,63.4,57.1,29.84,NNW,340,0.0,0.0,80,0.00,,,0.00,0,WeatherCatV1.14B232,2013-06-23 05:21:00,
2013-06-22 22:26:00,63.2,57.3,29.84,NNW,340,0.0,0.0,81,0.00,,,0.00,0,WeatherCatV1.14B232,2013-06-23 05:26:00,
2013-06-22 22:31:00,63.1,57.5,29.84,NNW,340,0.0,0.0,82,0.00,,,0.00,0,WeatherCatV1.14B232,2013-06-23 05:31:00,
2013-06-22 22:36:00,62.7,56.8,29.84,NNW,340,0.0,0.0,81,0.00,,,0.00,0,WeatherCatV1.14B232,2013-06-23 05:36:00,
2013-06-22 22:41:00,62.6,57.0,29.84,NNW,340,0.0,0.0,82,0.00,,,0.00,0,WeatherCatV1.14B232,2013-06-23 05:41:00,
2013-06-22 22:46:00,62.4,56.8,29.84,NNW,340,0.0,0.0,82,0.00,,,0.00,0,WeatherCatV1.14B232,2013-06-23 05:46:00,
2013-06-22 22:51:00,62.3,57.1,29.84,NNW,340,0.0,0.0,83,0.00,,,0.00,0,WeatherCatV1.14B232,2013-06-23 05:51:00,
2013-06-22 22:56:00,62.1,56.9,29.84,NNW,340,0.0,0.0,83,0.00,,,0.00,0,WeatherCatV1.14B232,2013-06-23 05:56:00,
2013-06-22 23:01:00,61.8,56.6,29.83,NNW,340,0.0,0.0,83,0.00,,,0.00,0,WeatherCatV1.14B232,2013-06-23 06:01:00,
2013-06-22 23:06:00,61.6,56.7,29.83,NNW,340,0.0,0.0,84,0.00,,,0.00,0,WeatherCatV1.14B232,2013-06-23 06:06:00,
2013-06-22 23:11:00,61.5,56.6,29.83,NNW,340,0.0,0.0,84,0.00,,,0.00,0,WeatherCatV1.14B232,2013-06-23 06:11:00,
2013-06-22 23:16:00,61.2,56.3,29.83,NNW,340,0.0,0.0,84,0.00,,,0.00,0,WeatherCatV1.14B232,2013-06-23 06:16:00,
2013-06-22 23:21:00,61.0,56.5,29.83,NNW,340,0.0,0.0,85,0.00,,,0.00,0,WeatherCatV1.14B232,2013-06-23 06:21:00,
2013-06-22 23:26:00,60.7,56.2,29.83,NNW,340,0.0,0.0,85,0.00,,,0.00,0,WeatherCatV1.14B232,2013-06-23 06:26:00,
2013-06-22 23:31:00,60.5,56.0,29.83,NNW,340,0.0,0.0,85,0.00,,,0.00,0,WeatherCatV1.14B232,2013-06-23 06:31:00,
2013-06-22 23:36:00,60.4,56.2,29.83,NNW,340,0.0,0.0,86,0.00,,,0.00,0,WeatherCatV1.14B232,2013-06-23 06:36:00,
2013-06-22 23:37:00,60.4,55.9,29.83,NNW,340,0.0,0.0,85,0.00,,,0.00,0,WeatherCatV1.14B232,2013-06-23 06:37:00,
2013-06-22 23:42:00,60.2,56.0,29.83,NNW,340,0.0,0.0,86,0.00,,,0.00,0,WeatherCatV1.14B232,2013-06-23 06:42:00,
2013-06-22 23:47:00,59.9,56.0,29.83,NNW,340,0.0,0.0,87,0.00,,,0.00,0,WeatherCatV1.14B232,2013-06-23 06:47:00,
2013-06-22 23:52:00,59.8,55.9,29.83,NNW,340,0.0,0.0,87,0.00,,,0.00,0,WeatherCatV1.14B232,2013-06-23 06:52:00,
2013-06-22 23:57:00,59.6,55.7,29.83,NNW,340,0.0,0.0,87,0.00,,,0.00,0,WeatherCatV1.14B232,2013-06-23 06:57:00,